Dubuque, IA

4:11 PM CDT on October 14, 2019 (GMT -0500)
Dubuque Regional

Weather History for KDBQ - August, 2019

Change the Weather History Date:

Thursday, August 1, 2019

  Actual Average Record
Temperature  
Mean Temperature 70 °F 71 °F  
Max Temperature 81 °F 81 °F 100 °F (1988)
Min Temperature 59 °F 62 °F 51 °F (1992)
Degree Days  
Heating Degree Days 0 0  
Month to date heating degree days 0 0  
Since 1 June heating degree days 29 48  
Since 1 July heating degree days 0 8  
Cooling Degree Days 5 7  
Month to date cooling degree days 5 7  
Year to date cooling degree days 458 407  
Since 1 June cooling degree days 432 370  
Growing Degree Days 20 (Base 50)    
Moisture  
Dew Point 58 °F    
Average Humidity 69    
Maximum Humidity 90    
Minimum Humidity 48    
Precipitation  
Precipitation 0.00 in 0.14 in 2.95 in (1972)
Month to date precipitation 0.00 0.14  
Year to date precipitation 26.11 21.72  
Snow  
Snow 0.00 in 0.00 in - ()
Month to date snowfall 0.0 0.0  
Since 1 June snowfall 0.0 0.0  
Since 1 July snowfall 0.0 0.0  
Snow Depth 0.00 in    
Sea Level Pressure  
Sea Level Pressure 30.19 in    
Wind  
Wind Speed 3 mph (ESE)    
Max Wind Speed 8 mph    
Max Gust Speed 13 mph    
Visibility 10 miles    
Events      
T = Trace of Precipitation, MM = Missing Value Source: NWS Daily Summary

Daily Weather History Graph

Daily Weather History Graph

Search for Another Location

Airport or City:

Astronomy

Aug. 01, 2019 Rise Set
Actual Time 5:55 AM CDT 8:22 PM CDT
Civil Twilight 5:23 AM CDT 8:54 PM CDT
Nautical Twilight 4:43 AM CDT 9:33 PM CDT
Astronomical Twilight 3:59 AM CDT 10:17 PM CDT
Moon 6:19 AM CDT (8/1) 9:09 PM CDT (8/1)
Length of Visible Light 15h 31m
Length of Day
14h 27m
New Moon, 1% of the Moon is Illuminated
Aug 1
New Moon
Aug 7
First Quarter
Aug 15
Full
Aug 23
Last Quarter
Aug 30
New

Hourly Weather History & Observations

Time (CDT) Temp. Dew Point Humidity Pressure Visibility Wind Dir Wind Speed Gust Speed Precip Events Conditions
12:53 AM 64.0 °F 57.0 °F 78% 30.17 in 10.0 mi ESE 4.6 mph - N/A   Clear
1:53 AM 61.0 °F 55.9 °F 83% 30.18 in 10.0 mi Calm Calm - N/A   Clear
2:53 AM 60.1 °F 55.0 °F 83% 30.17 in 10.0 mi Calm Calm - N/A   Clear
3:53 AM 60.1 °F 55.9 °F 86% 30.18 in 10.0 mi NE 3.5 mph - N/A   Clear
4:53 AM 61.0 °F 55.9 °F 83% 30.19 in 10.0 mi East 3.5 mph - N/A   Clear
5:53 AM 59.0 °F 55.9 °F 90% 30.21 in 10.0 mi Calm Calm - N/A   Clear
6:53 AM 61.0 °F 57.0 °F 87% 30.20 in 10.0 mi SE 3.5 mph - N/A   Clear
7:53 AM 64.0 °F 59.0 °F 84% 30.22 in 10.0 mi South 4.6 mph - N/A   Clear
8:53 AM 66.9 °F 59.0 °F 76% 30.24 in 10.0 mi South 6.9 mph - N/A   Clear
9:53 AM 70.0 °F 59.0 °F 68% 30.24 in 10.0 mi South 5.8 mph - N/A   Clear
10:53 AM 73.0 °F 57.9 °F 59% 30.24 in 10.0 mi WSW 3.5 mph - N/A   Clear
11:53 AM 75.9 °F 59.0 °F 56% 30.23 in 10.0 mi ESE 4.6 mph - N/A   Scattered Clouds
12:53 PM 75.9 °F 59.0 °F 56% 30.22 in 10.0 mi NNE 5.8 mph - N/A   Mostly Cloudy
1:53 PM 77.0 °F 57.9 °F 52% 30.20 in 10.0 mi Calm Calm - N/A   Clear
2:53 PM 78.1 °F 57.9 °F 50% 30.19 in 10.0 mi Calm Calm - N/A   Clear
3:53 PM 79.0 °F 57.9 °F 48% 30.19 in 10.0 mi East 3.5 mph - N/A   Clear
4:53 PM 78.1 °F 57.9 °F 50% 30.17 in 10.0 mi Calm Calm - N/A   Clear
5:53 PM 78.1 °F 59.0 °F 52% 30.17 in 10.0 mi ENE 8.1 mph - N/A   Clear
6:53 PM 77.0 °F 60.1 °F 56% 30.16 in 10.0 mi NE 4.6 mph - N/A   Clear
7:53 PM 73.9 °F 61.0 °F 64% 30.16 in 10.0 mi East 4.6 mph - N/A   Clear
8:53 PM 68.0 °F 61.0 °F 78% 30.17 in 10.0 mi Calm Calm - N/A   Clear
9:53 PM 66.0 °F 60.1 °F 81% 30.18 in 10.0 mi Calm Calm - N/A   Clear
10:53 PM 64.0 °F 60.1 °F 87% 30.18 in 10.0 mi Calm Calm - N/A   Clear
11:53 PM 64.0 °F 60.1 °F 87% 30.19 in 10.0 mi Calm Calm - N/A   Clear